Meath Environmental Platform

Observations for Trim Patrick St

Time AQI Temp °C Hum % Pres Pa CO μg/m³ H₂S μg/m³ NO μg/m³ NO₂ μg/m³ O₃ μg/m³ SO₂ μg/m³ PM1 μg/m³ PM2.5 μg/m³ PM10 μg/m³
Saturday 8 August 2026
14:54 2 31 34 69,304 0 0 0.81 11.07 76.34 14.73 2 8.21 9.03
14:53 2 30.9 34 69,314 0 0 0.82 10.62 81.37 14.37 2 8.19 9.01
14:52 2 30.9 34 69,294 0 0 0.84 11.73 80.11 14.42 2 8.2 9.02
14:51 2 30.9 35 69,264 0 0 0.83 12.38 80.25 13.77 2 7.37 8.11
14:50 2 30.9 35 69,262 0 0 0.8 11.81 83.4 14.8 2.86 8.95 9.84
14:49 2 30.9 34 69,256 0 0 0.82 11.38 68.71 14.25 2.86 8.21 9.03
14:48 2 30.9 35 69,250 0 0 0.82 13.43 86.8 14.14 2.86 8.18 9
14:47 2 30.8 36 69,271 0 0 0.79 10.55 66.05 13.54 2 8.12 8.93
14:46 2 30.8 35 69,267 0 0 0.81 14.03 65.39 12.6 2 7.35 8.09
14:45 2 30.7 36 69,260 0 0 0.81 13.32 75.35 13.32 2.86 8.12 8.93
14:44 2 30.6 35 69,254 0 0 0.86 10.55 67.87 14.48 2 7.37 8.1
14:43 2 30.6 35 69,248 0 0.94 0.83 18.03 81.07 13.36 2.86 8.14 8.96
14:42 2 30.5 36 69,232 0 0 0.86 13.61 78.39 13.5 2.86 8.11 8.92
14:41 2 30.4 36 69,250 0 0 0.87 13.64 89.68 13.93 2 7.32 8.05
14:40 2 30.3 36 69,271 0 0 0.9 11.15 65.9 12.81 2 8.12 8.93
14:39 2 30.2 36 69,278 0 2.78 0.93 13.91 96.24 13.84 2.86 8.12 8.93
14:38 2 30.2 36 69,246 0 3.02 0.91 14.08 105.08 13.84 2 8.12 8.93
14:37 2 30.1 36 69,240 0 0 0.92 9.85 79.65 14.02 2 8.1 8.91
14:36 2 30.1 35 69,234 0 0 0.96 13.9 90.25 12.98 2.86 8.13 8.95
14:34 2 30 36 69,254 0 1.11 0.92 11.92 78.08 13.64 2 7.3 8.03